Regional Weather Roundup
Issued by NWS Albany, NY

Home | Current Version | Previous Version | Graphics & Text | Print | Product List | Glossary Off
Versions: 1 2 3 4 5 6 7 8 9 10 11 12 13 14 15 16 17 18 19 20 21 22 23 24 25 26 27 28 29 30 31 32 33 34 35 36 37 38 39 40 41 42 43 44 45 46 47 48 49 50

000
ASUS41 KALY 240510
RWRALY

NEW YORK STATE HOURLY WEATHER ROUNDUP
NATIONAL WEATHER SERVICE ALBANY NY
100 AM EDT MON APR 24 2017

NOTE: "FAIR" INDICATES FEW OR NO CLOUDS BELOW 12,000 FEET WITH NO
SIGNIFICANT WEATHER AND/OR NO OBSTRUCTIONS TO VISIBILITY.

NYZ032-033-038>043-046>054-057>066-NYZ062>081-082-084-240600-
EAST


CITY           SKY/WX    TMP DP  RH WIND       PRES   REMARKS
ALBANY         MOCLDY    47  37  68 CALM      30.08R
GLENS FALLS    CLEAR     39  31  72 CALM      30.06R
POUGHKEEPSIE   CLEAR     50  40  68 CALM      30.10R
NEWBURGH       CLEAR     59  39  47 CALM      30.10S
MONTGOMERY     PTCLDY    48  41  76 CALM      30.09S
WHITE PLAINS   CLOUDY    44  41  89 CALM      30.12S
ISLIP          MOCLDY    46  43  89 CALM      30.14R
NEW YORK CITY  MOCLDY    53  40  61 SW7       30.13S
CENTRAL PARK   MOCLDY    51  40  65 CALM      30.16R
$$

NYZ005>009-017-018-044>046-055-056-240600-
CENTRAL


CITY           SKY/WX    TMP DP  RH WIND       PRES   REMARKS
FULTON         CLEAR     42  37  82 N3        30.08R
SYRACUSE       PTCLDY    45  38  76 CALM      30.07S
ROME           CLEAR     40  36  86 CALM      30.09S
ELMIRA         PTCLDY    43  36  76 CALM      30.09R
BINGHAMTON     CLOUDY    52  28  39 NE6       30.08R
MONTICELLO     PTCLDY    45  36  70 CALM      30.11S
$$

NYZ026>034-041>043-087-240600-
NORTH


CITY           SKY/WX    TMP DP  RH WIND       PRES   REMARKS
WATERTOWN      CLEAR     42  36  79 NE8       30.09S
FORT DRUM      NOT AVBL
OGDENSBURG     FAIR      45  37  71 N9        30.13R
MASSENA        PTCLDY    45  33  63 N3        30.14R
SARANAC LAKE   CLEAR     36  28  73 CALM      30.05S
PLATTSBURGH    CLEAR     50  34  54 NW9       30.08R
$$

NYZ001>004-010>016-019>021-085-240600-
WEST


CITY           SKY/WX    TMP DP  RH WIND       PRES   REMARKS
BUFFALO        CLEAR     46  33  60 CALM      30.08S
DUNKIRK        CLEAR     37  32  82 S5        30.09S WCI  33
JAMESTOWN      CLEAR     52  18  25 E3        30.09S
WELLSVILLE     CLEAR     48  28  46 CALM      30.10S
ROCHESTER      CLEAR     50  30  46 CALM      30.08F
PENN YAN       CLEAR     43  36  76 SW5       30.09R
$$

             KEY
       WCI = WIND CHILL INDEX
       VSB = VISIBILITY
       HX  = HEAT INDEX
$$



USA.gov is the U.S. government's official web portal to all federal, state and local government web resources and services.